TIANMU-1 19

Last updated on Tue Sep 22 2026 00:02:54 GMT+0000 (Coordinated Universal Time)

1 58660U 23208A 26264.61307936 .00005907 00000+0 18851-3 0 9991 2 58660 97.4575 21.5399 0004212 350.0277 10.0881 15.32879766152095
UTC large
Height (km)
Speed (km/s)
/
Latitude / Longitude
Inclination (degrees)
Orbital Period (minutes)
Azimuth
Elevation
Range (km)
Doppler Factor

Next 0 passes for location: London (51.5072 / 0.1276)

No passes found over London.
TIANMU-1 19